Vorticity
4 3 8 20 35 46 36 44 40 33 22 18 15 23 33 30 27 25 19 13 16 25 35 37 33 26 20
-1 16 39 48 36 41 36 26 17 6 14 35 12 3 5 7 5 4 5 11 21 23 16 15 17 25 29
26 51 39 49 32 20 7 17 26 17 11 17 15 14 19 14 16 16 19 18 16 8 5 18 21 13 12
40 32 51 19 8 27 18 15 16 14 23 11 6 7 5 14 11 10 8 17 16 17 15 15 3 22 18
35 46 11 10 22 16 16 13 13 6 15 10 7 4 10 10 11 17 16 17 17 22 18 18 19 6 13
43 9 11 21 15 12 10 10 11 5 9 12 5 8 9 12 14 18 18 22 25 24 26 18 22 24 9
12 8 18 13 9 10 11 12 11 10 8 15 4 10 6 16 14 15 15 18 22 23 32 23 24 16 28
8 21 8 10 12 10 10 7 9 13 8 16 7 11 10 12 10 15 27 29 22 13 7 9 27 22 17
18 4 11 7 7 6 4 9 9 14 6 15 8 17 11 9 6 15 3 20 -5 39 31 12 13 13 23
6 17 1 5 5 9 7 9 10 12 16 23 9 14 16 3 3 0 10 17 11 21 24 23 19 20 21
10 5 16 18 18 17 17 17 13 15 13 21 13 12 10 9 -2 7 24 24 19 16 18 19 21 23 28
17 13 20 21 17 11 12 14 14 14 11 22 15 12 8 3 4 21 12 10 10 12 20 24 20 28 41
17 17 17 7 9 15 16 19 17 19 17 14 16 14 4 -1 21 11 1 3 3 5 9 20 24 43 45
13 14 7 9 14 14 7 14 7 13 20 14 22 16 5 2 34 3 1 16 12 15 7 7 25 24 50
17 18 14 11 15 14 8 4 12 7 23 18 13 16 6 12 11 11 8 12 2 7 14 10 10 27 28
19 22 21 17 14 13 9 2 6 17 23 27 14 9 1 -6 11 13 4 10 7 1 11 6 8 13 21
24 27 26 18 14 14 9 2 4 13 20 33 22 11 6 4 11 11 4 21 5 2 10 2 15 5 17
Height
5510 5498 5473 5445 5428 5411 5393 5381 5375 5368 5360 5357 5354 5348 5342 5337 5332 5326 5321 5317 5313 5312 5311 5312 5314 5317 5324
5485 5464 5439 5422 5402 5390 5379 5369 5362 5354 5348 5345 5340 5335 5331 5326 5320 5314 5309 5304 5301 5298 5296 5296 5295 5296 5298
5442 5427 5411 5395 5387 5378 5367 5362 5353 5344 5341 5335 5327 5324 5319 5314 5309 5304 5299 5294 5289 5285 5282 5281 5280 5281 5282
5407 5398 5389 5381 5374 5367 5359 5350 5344 5334 5334 5326 5318 5315 5307 5301 5295 5291 5286 5281 5275 5269 5265 5263 5263 5263 5264
5390 5379 5373 5369 5361 5355 5349 5344 5336 5326 5328 5320 5312 5308 5300 5293 5286 5280 5272 5265 5259 5255 5252 5248 5246 5247 5248
5376 5369 5363 5358 5352 5347 5340 5336 5333 5318 5319 5314 5304 5300 5290 5283 5277 5269 5261 5254 5247 5241 5237 5235 5233 5234 5236
5366 5358 5353 5347 5343 5339 5333 5328 5322 5315 5309 5309 5296 5292 5281 5274 5266 5259 5252 5245 5237 5231 5226 5222 5221 5220 5220
5355 5349 5344 5339 5334 5329 5324 5320 5314 5306 5297 5299 5288 5282 5272 5265 5258 5252 5243 5236 5230 5224 5218 5212 5208 5206 5206
5346 5340 5334 5329 5323 5319 5313 5308 5305 5298 5290 5287 5280 5276 5266 5260 5252 5246 5238 5230 5221 5213 5206 5201 5196 5193 5192
5338 5332 5326 5319 5313 5307 5301 5297 5292 5291 5281 5279 5272 5268 5263 5254 5248 5240 5231 5220 5211 5202 5195 5188 5183 5179 5178
5331 5325 5317 5311 5305 5298 5291 5286 5282 5278 5272 5268 5265 5260 5256 5253 5244 5234 5224 5215 5206 5196 5187 5178 5170 5164 5160
5323 5316 5310 5303 5297 5291 5284 5278 5271 5269 5265 5259 5255 5252 5249 5245 5237 5231 5219 5211 5203 5195 5185 5172 5160 5149 5139
5316 5309 5303 5297 5292 5287 5279 5274 5265 5259 5256 5252 5248 5245 5241 5237 5232 5225 5217 5210 5202 5193 5182 5166 5152 5137 5124
5309 5302 5296 5291 5285 5281 5276 5271 5264 5255 5248 5245 5242 5240 5238 5233 5228 5222 5215 5210 5203 5193 5181 5165 5150 5134 5119
5299 5293 5287 5283 5278 5274 5270 5265 5260 5255 5246 5239 5237 5236 5234 5231 5226 5220 5216 5210 5203 5195 5183 5169 5156 5141 5126
5291 5284 5279 5275 5272 5267 5264 5260 5256 5249 5243 5238 5235 5233 5231 5229 5225 5221 5216 5211 5205 5197 5187 5176 5165 5152 5139
5285 5278 5273 5268 5265 5262 5258 5254 5249 5244 5239 5234 5233 5232 5231 5229 5225 5220 5216 5212 5207 5201 5194 5185 5176 5166 5155